Time,TemperatureF,DewpointF,PressureIn,WindDirection,WindDirectionDegrees,WindSpeedMPH,WindSpeedGustMPH,Humidity,HourlyPrecipIn,Conditions,Clouds,dailyrainin,SolarRadiationWatts/m^2,SoftwareType,DateUTC
2013-03-13 00:00:00,46.7,46.7,29.80,SW,226,6.7,11.2,100,0.00,,,-99.99,1.0,HOBO +U30 +Weather +,2013-03-13 07:00:00,
2013-03-13 00:05:00,46.8,46.8,29.81,SW,227,6.3,10.1,100,0.00,,,-99.99,1.0,HOBO +U30 +Weather +,2013-03-13 07:05:00,
2013-03-13 00:10:00,46.8,46.8,29.80,SW,220,5.6,8.9,100,0.00,,,-99.99,1.0,HOBO +U30 +Weather +,2013-03-13 07:10:00,
2013-03-13 00:15:00,46.6,46.6,29.80,SW,223,7.4,11.9,100,0.00,,,-99.99,1.0,HOBO +U30 +Weather +,2013-03-13 07:15:00,
2013-03-13 00:20:00,46.6,46.6,29.80,SW,225,6.7,11.2,100,0.00,,,-99.99,1.0,HOBO +U30 +Weather +,2013-03-13 07:20:00,
2013-03-13 00:25:00,46.7,46.7,29.81,SW,222,6.7,10.7,100,0.00,,,-99.99,1.0,HOBO +U30 +Weather +,2013-03-13 07:25:00,
2013-03-13 00:30:00,46.6,46.6,29.80,SW,222,6.7,11.2,100,0.00,,,-99.99,1.0,HOBO +U30 +Weather +,2013-03-13 07:30:00,
2013-03-13 00:35:00,46.4,46.5,29.81,SW,222,6.7,10.7,100,0.00,,,-99.99,1.0,HOBO +U30 +Weather +,2013-03-13 07:35:00,
2013-03-13 00:40:00,46.6,46.6,29.81,SW,220,6.7,11.9,100,0.00,,,-99.99,1.0,HOBO +U30 +Weather +,2013-03-13 07:40:00,
2013-03-13 00:45:00,46.6,46.6,29.81,SW,223,6.3,9.6,100,0.00,,,-99.99,1.0,HOBO +U30 +Weather +,2013-03-13 07:45:00,
2013-03-13 00:50:00,46.5,46.5,29.81,SW,220,6.3,9.6,100,0.00,,,-99.99,1.0,HOBO +U30 +Weather +,2013-03-13 07:50:00,
2013-03-13 00:55:00,46.4,46.5,29.81,SW,229,5.1,8.5,100,0.00,,,-99.99,1.0,HOBO +U30 +Weather +,2013-03-13 07:55:00,
2013-03-13 01:00:00,46.3,46.4,29.80,SW,222,5.6,7.8,100,0.00,,,-99.99,1.0,HOBO +U30 +Weather +,2013-03-13 08:00:00,
2013-03-13 01:05:00,46.3,46.4,29.80,SW,220,5.1,8.5,100,0.00,,,-99.99,1.0,HOBO +U30 +Weather +,2013-03-13 08:05:00,
2013-03-13 01:10:00,46.3,46.4,29.80,SW,218,4.5,7.4,100,0.00,,,-99.99,1.0,HOBO +U30 +Weather +,2013-03-13 08:10:00,
2013-03-13 01:15:00,46.3,46.3,29.80,SW,220,5.1,7.8,100,0.00,,,-99.99,1.0,HOBO +U30 +Weather +,2013-03-13 08:15:00,
2013-03-13 01:20:00,46.3,46.3,29.80,SW,216,4.5,7.4,100,0.00,,,-99.99,1.0,HOBO +U30 +Weather +,2013-03-13 08:20:00,
2013-03-13 01:25:00,46.3,46.3,29.80,SW,215,3.4,6.3,100,0.00,,,-99.99,1.0,HOBO +U30 +Weather +,2013-03-13 08:25:00,
2013-03-13 01:30:00,46.3,46.3,29.80,SW,220,2.9,5.6,100,0.00,,,-99.99,1.0,HOBO +U30 +Weather +,2013-03-13 08:30:00,
2013-03-13 01:35:00,46.3,46.4,29.80,SW,220,2.9,5.6,100,0.00,,,-99.99,1.0,HOBO +U30 +Weather +,2013-03-13 08:35:00,
2013-03-13 01:40:00,46.3,46.4,29.80,SW,220,2.9,5.6,100,0.00,,,-99.99,1.0,HOBO +U30 +Weather +,2013-03-13 08:40:00,
2013-03-13 01:45:00,46.2,46.2,29.81,SW,230,2.9,6.7,100,0.00,,,-99.99,1.0,HOBO +U30 +Weather +,2013-03-13 08:45:00,
2013-03-13 01:50:00,45.8,45.8,29.81,SW,232,4.5,7.4,100,0.00,,,-99.99,1.0,HOBO +U30 +Weather +,2013-03-13 08:50:00,
2013-03-13 01:55:00,45.7,45.7,29.81,SW,234,5.6,8.9,100,0.00,,,-99.99,1.0,HOBO +U30 +Weather +,2013-03-13 08:55:00,
2013-03-13 02:00:00,45.6,45.6,29.81,SW,230,5.1,9.6,100,0.00,,,-99.99,1.0,HOBO +U30 +Weather +,2013-03-13 09:00:00,
2013-03-13 02:05:00,45.8,45.8,29.81,SW,227,4.5,8.9,100,0.00,,,-99.99,1.0,HOBO +U30 +Weather +,2013-03-13 09:05:00,
2013-03-13 02:10:00,45.9,45.9,29.81,SW,226,4.5,7.8,100,0.00,,,-99.99,1.0,HOBO +U30 +Weather +,2013-03-13 09:10:00,
2013-03-13 02:15:00,46.1,46.1,29.81,SW,223,4.0,7.4,100,0.00,,,-99.99,1.0,HOBO +U30 +Weather +,2013-03-13 09:15:00,
2013-03-13 02:20:00,46.1,46.1,29.81,SW,220,4.5,7.8,100,0.00,,,-99.99,1.0,HOBO +U30 +Weather +,2013-03-13 09:20:00,
2013-03-13 02:25:00,46.0,46.0,29.81,SW,220,4.5,8.5,100,0.00,,,-99.99,1.0,HOBO +U30 +Weather +,2013-03-13 09:25:00,
2013-03-13 02:30:00,45.8,45.9,29.81,SW,219,3.4,7.8,100,0.00,,,-99.99,1.0,HOBO +U30 +Weather +,2013-03-13 09:30:00,
2013-03-13 02:35:00,45.7,45.7,29.81,SW,225,4.0,9.6,100,0.00,,,-99.99,1.0,HOBO +U30 +Weather +,2013-03-13 09:35:00,
2013-03-13 02:40:00,45.7,45.7,29.81,SW,227,3.4,7.4,100,0.00,,,-99.99,1.0,HOBO +U30 +Weather +,2013-03-13 09:40:00,
2013-03-13 02:45:00,45.6,45.6,29.81,SW,223,4.0,8.5,100,0.00,,,-99.99,1.0,HOBO +U30 +Weather +,2013-03-13 09:45:00,
2013-03-13 02:50:00,45.7,45.7,29.81,SW,223,5.6,9.6,100,0.00,,,-99.99,1.0,HOBO +U30 +Weather +,2013-03-13 09:50:00,
2013-03-13 02:55:00,45.8,45.9,29.81,SW,226,4.5,8.9,100,0.00,,,-99.99,1.0,HOBO +U30 +Weather +,2013-03-13 09:55:00,
2013-03-13 03:00:00,45.9,46.0,29.81,SW,223,5.6,11.2,100,0.00,,,-99.99,1.0,HOBO +U30 +Weather +,2013-03-13 10:00:00,
2013-03-13 03:05:00,46.1,46.1,29.81,SW,222,4.5,10.1,100,0.00,,,-99.99,1.0,HOBO +U30 +Weather +,2013-03-13 10:05:00,
2013-03-13 03:10:00,46.1,46.1,29.81,SW,222,4.0,7.8,100,0.00,,,-99.99,1.0,HOBO +U30 +Weather +,2013-03-13 10:10:00,
2013-03-13 03:15:00,45.8,45.8,29.81,SW,227,6.7,10.7,100,0.00,,,-99.99,1.0,HOBO +U30 +Weather +,2013-03-13 10:15:00,
2013-03-13 03:20:00,45.7,45.7,29.81,SW,223,5.6,10.1,100,0.00,,,-99.99,1.0,HOBO +U30 +Weather +,2013-03-13 10:20:00,
2013-03-13 03:25:00,45.7,45.7,29.81,SW,219,6.3,10.1,100,0.00,,,-99.99,1.0,HOBO +U30 +Weather +,2013-03-13 10:25:00,
2013-03-13 03:30:00,45.7,45.7,29.81,SW,227,5.6,10.7,100,0.00,,,-99.99,1.0,HOBO +U30 +Weather +,2013-03-13 10:30:00,
2013-03-13 03:35:00,45.6,45.6,29.80,SW,229,5.6,10.7,100,0.00,,,-99.99,1.0,HOBO +U30 +Weather +,2013-03-13 10:35:00,
2013-03-13 03:40:00,45.6,45.6,29.81,SW,227,4.5,10.1,100,0.00,,,-99.99,1.0,HOBO +U30 +Weather +,2013-03-13 10:40:00,
2013-03-13 03:45:00,45.6,45.6,29.81,SW,225,6.3,11.2,100,0.00,,,-99.99,1.0,HOBO +U30 +Weather +,2013-03-13 10:45:00,
2013-03-13 03:50:00,45.7,45.7,29.81,SW,223,5.6,11.2,100,0.00,,,-99.99,1.0,HOBO +U30 +Weather +,2013-03-13 10:50:00,
2013-03-13 03:55:00,45.7,45.7,29.81,SW,223,5.1,8.9,100,0.00,,,-99.99,1.0,HOBO +U30 +Weather +,2013-03-13 10:55:00,
2013-03-13 04:00:00,45.7,45.7,29.81,SW,226,5.6,10.1,100,0.00,,,-99.99,1.0,HOBO +U30 +Weather +,2013-03-13 11:00:00,
2013-03-13 04:05:00,45.7,45.7,29.81,SW,223,5.6,9.6,100,0.00,,,-99.99,1.0,HOBO +U30 +Weather +,2013-03-13 11:05:00,
2013-03-13 04:10:00,45.6,45.6,29.81,SW,220,6.3,9.6,100,0.00,,,-99.99,1.0,HOBO +U30 +Weather +,2013-03-13 11:10:00,
2013-03-13 04:15:00,45.5,45.6,29.81,SW,222,5.6,8.9,100,0.00,,,-99.99,1.0,HOBO +U30 +Weather +,2013-03-13 11:15:00,
2013-03-13 04:20:00,45.4,45.5,29.81,SW,220,5.6,10.1,100,0.00,,,-99.99,1.0,HOBO +U30 +Weather +,2013-03-13 11:20:00,
2013-03-13 04:25:00,45.5,45.5,29.81,SW,225,4.0,7.8,100,0.00,,,-99.99,1.0,HOBO +U30 +Weather +,2013-03-13 11:25:00,
2013-03-13 04:30:00,45.6,45.6,29.81,SW,223,3.4,6.7,100,0.00,,,-99.99,1.0,HOBO +U30 +Weather +,2013-03-13 11:30:00,
2013-03-13 04:35:00,45.8,45.8,29.81,SW,219,0.7,4.0,100,0.00,,,-99.99,1.0,HOBO +U30 +Weather +,2013-03-13 11:35:00,
2013-03-13 04:40:00,45.7,45.7,29.81,SW,216,2.2,5.6,100,0.00,,,-99.99,1.0,HOBO +U30 +Weather +,2013-03-13 11:40:00,
2013-03-13 04:45:00,45.8,45.8,29.81,SW,226,2.2,5.6,100,0.00,,,-99.99,1.0,HOBO +U30 +Weather +,2013-03-13 11:45:00,
2013-03-13 04:50:00,45.8,45.8,29.81,SW,222,2.2,4.5,100,0.00,,,-99.99,1.0,HOBO +U30 +Weather +,2013-03-13 11:50:00,
2013-03-13 04:55:00,45.8,45.8,29.81,SW,226,0.7,3.4,100,0.00,,,-99.99,1.0,HOBO +U30 +Weather +,2013-03-13 11:55:00,
2013-03-13 05:00:00,45.8,45.8,29.81,SW,223,0.7,3.4,100,0.00,,,-99.99,1.0,HOBO +U30 +Weather +,2013-03-13 12:00:00,
2013-03-13 05:05:00,45.7,45.7,29.81,SW,225,0.0,1.1,100,0.00,,,-99.99,1.0,HOBO +U30 +Weather +,2013-03-13 12:05:00,
2013-03-13 05:10:00,45.5,45.6,29.81,SW,225,0.0,1.8,100,0.00,,,-99.99,1.0,HOBO +U30 +Weather +,2013-03-13 12:10:00,
2013-03-13 05:15:00,45.5,45.5,29.81,SW,226,0.0,0.0,100,0.00,,,-99.99,1.0,HOBO +U30 +Weather +,2013-03-13 12:15:00,
2013-03-13 05:20:00,45.5,45.5,29.81,SW,226,0.0,0.0,100,0.00,,,-99.99,1.0,HOBO +U30 +Weather +,2013-03-13 12:20:00,
2013-03-13 05:25:00,45.6,45.6,29.81,SW,226,0.0,0.0,100,0.00,,,-99.99,1.0,HOBO +U30 +Weather +,2013-03-13 12:25:00,
2013-03-13 05:30:00,45.6,45.6,29.81,SW,226,0.0,0.0,100,0.00,,,-99.99,1.0,HOBO +U30 +Weather +,2013-03-13 12:30:00,
2013-03-13 05:35:00,45.4,45.4,29.81,WNW,298,0.0,0.0,100,0.00,,,-99.99,1.0,HOBO +U30 +Weather +,2013-03-13 12:35:00,
2013-03-13 05:40:00,45.3,45.3,29.81,NNW,343,0.0,0.0,100,0.00,,,-99.99,1.0,HOBO +U30 +Weather +,2013-03-13 12:40:00,
2013-03-13 05:45:00,45.3,45.3,29.81,NNW,343,0.0,0.0,100,0.00,,,-99.99,1.0,HOBO +U30 +Weather +,2013-03-13 12:45:00,
2013-03-13 05:55:00,45.5,45.5,29.81,North,355,0.0,0.7,100,0.00,,,-99.99,1.0,HOBO +U30 +Weather +,2013-03-13 12:55:00,
2013-03-13 06:00:00,45.8,45.8,29.81,North,350,0.0,1.8,100,0.00,,,-99.99,1.0,HOBO +U30 +Weather +,2013-03-13 13:00:00,
2013-03-13 06:05:00,46.3,46.3,29.81,North,354,0.0,1.8,100,0.00,,,-99.99,1.0,HOBO +U30 +Weather +,2013-03-13 13:05:00,
2013-03-13 06:10:00,46.6,46.6,29.81,North,354,0.0,1.8,100,0.00,,,-99.99,1.0,HOBO +U30 +Weather +,2013-03-13 13:10:00,
2013-03-13 06:15:00,46.8,46.8,29.81,North,355,0.0,2.2,100,0.00,,,-99.99,1.0,HOBO +U30 +Weather +,2013-03-13 13:15:00,
2013-03-13 06:20:00,47.0,47.0,29.81,North,354,0.0,2.9,100,0.00,,,-99.99,1.0,HOBO +U30 +Weather +,2013-03-13 13:20:00,
2013-03-13 06:25:00,47.2,47.2,29.81,North,355,0.0,2.2,100,0.00,,,-99.99,1.0,HOBO +U30 +Weather +,2013-03-13 13:25:00,
2013-03-13 06:30:00,47.3,47.4,29.82,North,355,0.0,0.7,100,0.00,,,-99.99,1.0,HOBO +U30 +Weather +,2013-03-13 13:30:00,
2013-03-13 06:35:00,47.4,47.4,29.82,NNW,348,0.0,0.0,100,0.00,,,-99.99,1.0,HOBO +U30 +Weather +,2013-03-13 13:35:00,
2013-03-13 06:40:00,47.5,47.5,29.81,North,1,0.0,1.8,100,0.00,,,-99.99,1.0,HOBO +U30 +Weather +,2013-03-13 13:40:00,
2013-03-13 06:45:00,47.5,47.5,29.81,NNE,25,0.0,4.0,100,0.00,,,-99.99,1.0,HOBO +U30 +Weather +,2013-03-13 13:45:00,
2013-03-13 06:50:00,47.6,47.6,29.82,NNE,13,0.0,1.8,100,0.00,,,-99.99,1.0,HOBO +U30 +Weather +,2013-03-13 13:50:00,
2013-03-13 06:55:00,47.8,47.8,29.82,North,6,0.0,1.8,100,0.00,,,-99.99,1.0,HOBO +U30 +Weather +,2013-03-13 13:55:00,
2013-03-13 07:00:00,47.9,47.9,29.82,North,1,0.0,1.8,100,0.00,,,-99.99,1.0,HOBO +U30 +Weather +,2013-03-13 14:00:00,
2013-03-13 07:05:00,48.0,48.0,29.82,North,354,0.0,1.1,100,0.00,,,-99.99,1.0,HOBO +U30 +Weather +,2013-03-13 14:05:00,
2013-03-13 07:10:00,48.1,48.1,29.82,North,1,0.0,1.1,100,0.00,,,-99.99,1.0,HOBO +U30 +Weather +,2013-03-13 14:10:00,
2013-03-13 07:15:00,48.0,48.0,29.82,North,354,0.0,1.1,100,0.00,,,-99.99,1.0,HOBO +U30 +Weather +,2013-03-13 14:15:00,
2013-03-13 07:20:00,47.9,47.9,29.82,North,352,0.0,1.1,100,0.00,,,-99.99,3.0,HOBO +U30 +Weather +,2013-03-13 14:20:00,
2013-03-13 07:25:00,47.9,47.9,29.83,North,355,0.0,1.8,100,0.00,,,-99.99,4.0,HOBO +U30 +Weather +,2013-03-13 14:25:00,
2013-03-13 07:30:00,48.1,48.1,29.83,North,352,0.0,1.8,100,0.00,,,-99.99,9.0,HOBO +U30 +Weather +,2013-03-13 14:30:00,
2013-03-13 07:35:00,47.9,47.9,29.83,North,354,0.0,2.2,100,0.00,,,-99.99,13.0,HOBO +U30 +Weather +,2013-03-13 14:35:00,
2013-03-13 07:40:00,47.9,47.9,29.83,NNW,345,0.0,1.1,100,0.00,,,-99.99,23.0,HOBO +U30 +Weather +,2013-03-13 14:40:00,
2013-03-13 07:45:00,47.9,47.9,29.83,North,355,0.0,2.2,100,0.00,,,-99.99,33.0,HOBO +U30 +Weather +,2013-03-13 14:45:00,
2013-03-13 07:50:00,48.1,48.1,29.83,North,355,0.0,0.0,100,0.00,,,-99.99,47.0,HOBO +U30 +Weather +,2013-03-13 14:50:00,
2013-03-13 07:55:00,48.2,48.2,29.83,North,355,0.0,0.0,100,0.00,,,-99.99,94.0,HOBO +U30 +Weather +,2013-03-13 14:55:00,
2013-03-13 08:00:00,48.6,48.7,29.82,North,355,0.0,0.0,100,0.00,,,-99.99,113.0,HOBO +U30 +Weather +,2013-03-13 15:00:00,
2013-03-13 08:05:00,49.6,49.6,29.82,North,355,0.0,0.7,100,0.00,,,-99.99,124.0,HOBO +U30 +Weather +,2013-03-13 15:05:00,
2013-03-13 08:10:00,50.1,50.1,29.82,North,355,0.0,0.0,100,0.00,,,-99.99,131.0,HOBO +U30 +Weather +,2013-03-13 15:10:00,
2013-03-13 08:15:00,50.4,50.4,29.82,NNE,24,0.0,1.8,100,0.00,,,-99.99,136.0,HOBO +U30 +Weather +,2013-03-13 15:15:00,
2013-03-13 08:20:00,50.2,50.2,29.82,NE,48,0.0,1.1,100,0.00,,,-99.99,112.0,HOBO +U30 +Weather +,2013-03-13 15:20:00,
2013-03-13 08:25:00,50.2,50.2,29.82,NE,42,0.0,2.2,100,0.00,,,-99.99,164.0,HOBO +U30 +Weather +,2013-03-13 15:25:00,
2013-03-13 08:30:00,50.9,50.9,29.82,NE,48,0.0,1.1,100,0.00,,,-99.99,183.0,HOBO +U30 +Weather +,2013-03-13 15:30:00,
2013-03-13 08:35:00,50.9,51.0,29.82,NE,48,0.0,0.7,100,0.00,,,-99.99,207.0,HOBO +U30 +Weather +,2013-03-13 15:35:00,
2013-03-13 08:40:00,51.9,51.9,29.82,NE,48,0.0,0.7,100,0.00,,,-99.99,208.0,HOBO +U30 +Weather +,2013-03-13 15:40:00,
2013-03-13 08:45:00,52.0,52.0,29.82,East,100,0.0,2.2,100,0.00,,,-99.99,234.0,HOBO +U30 +Weather +,2013-03-13 15:45:00,
2013-03-13 08:50:00,51.7,51.7,29.82,SE,139,1.1,2.9,100,0.00,,,-99.99,243.0,HOBO +U30 +Weather +,2013-03-13 15:50:00,
2013-03-13 08:55:00,51.4,51.4,29.81,SSE,149,1.8,4.5,100,0.00,,,-99.99,267.0,HOBO +U30 +Weather +,2013-03-13 15:55:00,
2013-03-13 09:00:00,51.5,51.5,29.82,SSE,150,0.7,2.9,100,0.00,,,-99.99,282.0,HOBO +U30 +Weather +,2013-03-13 16:00:00,
2013-03-13 09:05:00,51.2,51.2,29.82,SSE,152,0.7,3.4,100,0.00,,,-99.99,288.0,HOBO +U30 +Weather +,2013-03-13 16:05:00,
2013-03-13 09:10:00,51.2,51.2,29.83,SSW,202,0.7,2.9,100,0.00,,,-99.99,308.0,HOBO +U30 +Weather +,2013-03-13 16:10:00,
2013-03-13 09:15:00,52.7,52.7,29.83,SSW,211,0.0,1.8,100,0.00,,,-99.99,321.0,HOBO +U30 +Weather +,2013-03-13 16:15:00,
2013-03-13 09:20:00,53.3,53.3,29.83,SSW,208,0.0,1.1,100,0.00,,,-99.99,286.0,HOBO +U30 +Weather +,2013-03-13 16:20:00,
2013-03-13 09:25:00,53.0,53.0,29.83,SSE,154,0.0,1.1,100,0.00,,,-99.99,249.0,HOBO +U30 +Weather +,2013-03-13 16:25:00,
2013-03-13 09:30:00,53.3,53.3,29.83,NE,38,0.0,2.2,100,0.00,,,-99.99,332.0,HOBO +U30 +Weather +,2013-03-13 16:30:00,
2013-03-13 09:35:00,53.0,53.0,29.83,North,1,0.0,3.4,100,0.00,,,-99.99,316.0,HOBO +U30 +Weather +,2013-03-13 16:35:00,
2013-03-13 09:40:00,52.6,52.6,29.83,North,6,0.7,2.9,100,0.00,,,-99.99,324.0,HOBO +U30 +Weather +,2013-03-13 16:40:00,
2013-03-13 09:50:00,53.1,53.1,29.84,North,10,0.7,3.4,100,0.00,,,-99.99,407.0,HOBO +U30 +Weather +,2013-03-13 16:50:00,
2013-03-13 09:55:00,53.8,53.8,29.84,North,355,0.7,2.2,100,0.00,,,-99.99,419.0,HOBO +U30 +Weather +,2013-03-13 16:55:00,
2013-03-13 10:00:00,53.7,53.7,29.83,North,0,0.7,3.4,100,0.00,,,-99.99,434.0,HOBO +U30 +Weather +,2013-03-13 17:00:00,
2013-03-13 10:05:00,54.2,54.2,29.83,North,8,1.1,4.5,100,0.00,,,-99.99,449.0,HOBO +U30 +Weather +,2013-03-13 17:05:00,
2013-03-13 10:10:00,55.2,55.3,29.83,North,355,0.7,2.9,100,0.00,,,-99.99,462.0,HOBO +U30 +Weather +,2013-03-13 17:10:00,
2013-03-13 10:15:00,54.8,54.8,29.83,NNE,15,1.1,4.0,100,0.00,,,-99.99,476.0,HOBO +U30 +Weather +,2013-03-13 17:15:00,
2013-03-13 10:35:00,57.9,57.8,29.83,North,10,1.8,5.1,99,0.00,,,-99.99,524.0,HOBO +U30 +Weather +,2013-03-13 17:35:00,
2013-03-13 10:40:00,59.0,58.5,29.84,North,0,0.7,5.1,98,0.00,,,-99.99,542.0,HOBO +U30 +Weather +,2013-03-13 17:40:00,
2013-03-13 10:45:00,58.5,56.9,29.84,North,7,1.8,6.3,94,0.00,,,-99.99,557.0,HOBO +U30 +Weather +,2013-03-13 17:45:00,
2013-03-13 11:40:00,63.4,55.0,29.83,North,10,1.1,5.1,74,0.00,,,-99.99,654.0,HOBO +U30 +Weather +,2013-03-13 18:40:00,
2013-03-13 11:55:00,64.8,55.3,29.83,NNW,345,1.1,4.5,71,0.00,,,-99.99,583.0,HOBO +U30 +Weather +,2013-03-13 18:55:00,
2013-03-13 12:00:00,65.5,55.6,29.83,North,354,1.1,5.1,70,0.00,,,-99.99,679.0,HOBO +U30 +Weather +,2013-03-13 19:00:00,
2013-03-13 12:05:00,65.4,55.2,29.82,North,1,1.1,4.5,69,0.00,,,-99.99,646.0,HOBO +U30 +Weather +,2013-03-13 19:05:00,
2013-03-13 12:10:00,65.8,55.0,29.83,NW,321,0.7,4.5,68,0.00,,,-99.99,607.0,HOBO +U30 +Weather +,2013-03-13 19:10:00,
2013-03-13 12:15:00,66.4,55.9,29.82,NNE,14,0.7,4.0,68,0.00,,,-99.99,548.0,HOBO +U30 +Weather +,2013-03-13 19:15:00,
2013-03-13 12:20:00,66.6,55.3,29.82,NNW,341,0.7,4.0,66,0.00,,,-99.99,623.0,HOBO +U30 +Weather +,2013-03-13 19:20:00,
2013-03-13 12:25:00,67.2,56.0,29.82,NNW,341,1.8,5.1,67,0.00,,,-99.99,732.0,HOBO +U30 +Weather +,2013-03-13 19:25:00,
2013-03-13 12:30:00,67.9,55.8,29.82,NNW,344,0.7,3.4,65,0.00,,,-99.99,693.0,HOBO +U30 +Weather +,2013-03-13 19:30:00,
2013-03-13 12:40:00,69.1,56.7,29.81,NW,314,1.1,4.5,64,0.00,,,-99.99,722.0,HOBO +U30 +Weather +,2013-03-13 19:40:00,
2013-03-13 12:45:00,69.0,56.1,29.81,NNW,338,0.7,4.5,63,0.00,,,-99.99,691.0,HOBO +U30 +Weather +,2013-03-13 19:45:00,
2013-03-13 12:50:00,69.4,56.2,29.81,NNW,347,1.1,4.5,62,0.00,,,-99.99,622.0,HOBO +U30 +Weather +,2013-03-13 19:50:00,
2013-03-13 12:55:00,68.6,55.4,29.81,NNW,344,1.8,4.5,62,0.00,,,-99.99,687.0,HOBO +U30 +Weather +,2013-03-13 19:55:00,
2013-03-13 13:00:00,69.4,55.5,29.81,NNW,338,1.8,5.1,61,0.00,,,-99.99,711.0,HOBO +U30 +Weather +,2013-03-13 20:00:00,
2013-03-13 13:05:00,69.5,55.4,29.81,NNW,343,1.8,4.5,60,0.00,,,-99.99,711.0,HOBO +U30 +Weather +,2013-03-13 20:05:00,
2013-03-13 13:10:00,70.5,55.8,29.81,North,350,1.1,4.5,59,0.00,,,-99.99,711.0,HOBO +U30 +Weather +,2013-03-13 20:10:00,
2013-03-13 13:15:00,70.7,55.6,29.81,NW,314,1.1,5.1,58,0.00,,,-99.99,708.0,HOBO +U30 +Weather +,2013-03-13 20:15:00,
2013-03-13 13:20:00,70.8,55.6,29.81,North,352,1.1,4.5,58,0.00,,,-99.99,718.0,HOBO +U30 +Weather +,2013-03-13 20:20:00,
2013-03-13 13:25:00,71.8,56.9,29.81,WNW,298,0.7,4.5,59,0.00,,,-99.99,691.0,HOBO +U30 +Weather +,2013-03-13 20:25:00,
2013-03-13 13:30:00,63.0,49.7,29.80,SW,234,7.4,11.2,61,0.00,,,-99.99,671.0,HOBO +U30 +Weather +,2013-03-13 20:30:00,
2013-03-13 13:35:00,62.4,51.9,29.80,SW,234,7.4,12.3,68,0.00,,,-99.99,668.0,HOBO +U30 +Weather +,2013-03-13 20:35:00,
2013-03-13 13:40:00,62.3,52.6,29.80,SW,234,6.7,11.2,70,0.00,,,-99.99,694.0,HOBO +U30 +Weather +,2013-03-13 20:40:00,
2013-03-13 13:45:00,62.2,51.9,29.80,SW,236,7.4,11.2,69,0.00,,,-99.99,696.0,HOBO +U30 +Weather +,2013-03-13 20:45:00,
2013-03-13 13:50:00,63.3,52.7,29.80,SW,229,5.6,10.1,68,0.00,,,-99.99,672.0,HOBO +U30 +Weather +,2013-03-13 20:50:00,
2013-03-13 13:55:00,64.2,53.1,29.80,SW,229,6.3,11.2,67,0.00,,,-99.99,734.0,HOBO +U30 +Weather +,2013-03-13 20:55:00,
2013-03-13 14:00:00,63.7,52.4,29.80,SW,234,6.3,10.7,66,0.00,,,-99.99,643.0,HOBO +U30 +Weather +,2013-03-13 21:00:00,
2013-03-13 14:05:00,64.0,53.2,29.80,WSW,240,5.6,10.1,67,0.00,,,-99.99,662.0,HOBO +U30 +Weather +,2013-03-13 21:05:00,
2013-03-13 14:10:00,63.6,52.6,29.80,SW,236,6.7,13.0,67,0.00,,,-99.99,739.0,HOBO +U30 +Weather +,2013-03-13 21:10:00,
2013-03-13 14:15:00,63.6,53.0,29.79,SW,232,7.4,11.2,68,0.00,,,-99.99,548.0,HOBO +U30 +Weather +,2013-03-13 21:15:00,
2013-03-13 14:20:00,62.7,52.4,29.79,SW,232,7.4,11.9,68,0.00,,,-99.99,756.0,HOBO +U30 +Weather +,2013-03-13 21:20:00,
2013-03-13 14:25:00,63.4,52.9,29.79,SW,236,6.7,11.2,68,0.00,,,-99.99,727.0,HOBO +U30 +Weather +,2013-03-13 21:25:00,
2013-03-13 14:30:00,64.1,53.1,29.79,SW,232,6.7,11.2,67,0.00,,,-99.99,648.0,HOBO +U30 +Weather +,2013-03-13 21:30:00,
2013-03-13 14:35:00,65.1,53.7,29.78,SW,232,5.6,10.7,66,0.00,,,-99.99,571.0,HOBO +U30 +Weather +,2013-03-13 21:35:00,
2013-03-13 14:40:00,66.5,54.3,29.78,SW,225,5.1,8.5,64,0.00,,,-99.99,586.0,HOBO +U30 +Weather +,2013-03-13 21:40:00,
2013-03-13 14:45:00,66.6,54.2,29.78,SW,232,5.1,8.9,64,0.00,,,-99.99,608.0,HOBO +U30 +Weather +,2013-03-13 21:45:00,
2013-03-13 14:50:00,68.4,55.3,29.78,SW,226,3.4,6.7,62,0.00,,,-99.99,541.0,HOBO +U30 +Weather +,2013-03-13 21:50:00,
2013-03-13 14:55:00,71.4,56.4,29.78,SW,233,1.1,4.0,59,0.00,,,-99.99,676.0,HOBO +U30 +Weather +,2013-03-13 21:55:00,
2013-03-13 15:00:00,71.4,54.6,29.78,WNW,292,1.8,5.1,55,0.00,,,-99.99,642.0,HOBO +U30 +Weather +,2013-03-13 22:00:00,
2013-03-13 15:05:00,73.0,56.1,29.78,WNW,295,0.7,4.5,55,0.00,,,-99.99,628.0,HOBO +U30 +Weather +,2013-03-13 22:05:00,
2013-03-13 15:10:00,72.9,55.0,29.77,WNW,282,1.1,4.0,53,0.00,,,-99.99,612.0,HOBO +U30 +Weather +,2013-03-13 22:10:00,
2013-03-13 15:15:00,74.0,55.9,29.77,West,261,0.7,3.4,53,0.00,,,-99.99,604.0,HOBO +U30 +Weather +,2013-03-13 22:15:00,
2013-03-13 15:20:00,73.3,55.1,29.77,WNW,293,0.7,4.5,52,0.00,,,-99.99,594.0,HOBO +U30 +Weather +,2013-03-13 22:20:00,
2013-03-13 15:25:00,73.9,56.1,29.77,West,267,1.1,4.5,53,0.00,,,-99.99,582.0,HOBO +U30 +Weather +,2013-03-13 22:25:00,
2013-03-13 15:30:00,74.6,56.2,29.77,West,279,1.1,4.5,52,0.00,,,-99.99,571.0,HOBO +U30 +Weather +,2013-03-13 22:30:00,
2013-03-13 15:35:00,74.1,56.0,29.77,West,268,1.1,4.5,53,0.00,,,-99.99,561.0,HOBO +U30 +Weather +,2013-03-13 22:35:00,
2013-03-13 15:40:00,74.5,55.7,29.77,SW,233,1.8,5.1,51,0.00,,,-99.99,551.0,HOBO +U30 +Weather +,2013-03-13 22:40:00,
2013-03-13 16:40:00,73.5,54.2,29.75,SW,227,1.8,5.1,50,0.00,,,-99.99,407.0,HOBO +U30 +Weather +,2013-03-13 23:40:00,
2013-03-13 17:00:00,75.1,52.4,29.75,West,267,1.8,6.7,45,0.00,,,-99.99,358.0,HOBO +U30 +Weather +,2013-03-14 00:00:00,
2013-03-13 17:05:00,70.3,51.5,29.75,SW,234,6.3,10.7,51,0.00,,,-99.99,344.0,HOBO +U30 +Weather +,2013-03-14 00:05:00,
2013-03-13 17:10:00,64.5,49.8,29.75,SW,236,8.5,15.2,58,0.00,,,-99.99,331.0,HOBO +U30 +Weather +,2013-03-14 00:10:00,
2013-03-13 17:15:00,61.4,50.7,29.75,SW,232,9.6,14.5,67,0.00,,,-99.99,312.0,HOBO +U30 +Weather +,2013-03-14 00:15:00,
2013-03-13 17:40:00,59.7,51.8,29.75,SW,230,7.8,11.9,75,0.00,,,-99.99,213.0,HOBO +U30 +Weather +,2013-03-14 00:40:00,
2013-03-13 17:45:00,59.0,51.6,29.75,SW,225,7.8,11.2,76,0.00,,,-99.99,189.0,HOBO +U30 +Weather +,2013-03-14 00:45:00,
2013-03-13 17:50:00,58.5,51.4,29.74,SW,230,8.5,11.9,77,0.00,,,-99.99,144.0,HOBO +U30 +Weather +,2013-03-14 00:50:00,
2013-03-13 17:55:00,57.8,51.1,29.75,SW,232,8.5,13.0,78,0.00,,,-99.99,138.0,HOBO +U30 +Weather +,2013-03-14 00:55:00,
2013-03-13 18:00:00,56.6,50.6,29.75,SW,230,10.7,16.3,80,0.00,,,-99.99,123.0,HOBO +U30 +Weather +,2013-03-14 01:00:00,
2013-03-13 18:05:00,55.6,50.1,29.75,SW,229,10.7,17.0,81,0.00,,,-99.99,107.0,HOBO +U30 +Weather +,2013-03-14 01:05:00,
2013-03-13 18:10:00,54.2,49.8,29.75,SW,230,11.9,18.6,85,0.00,,,-99.99,117.0,HOBO +U30 +Weather +,2013-03-14 01:10:00,
2013-03-13 18:15:00,53.6,50.0,29.75,SW,232,10.7,16.3,87,0.00,,,-99.99,119.0,HOBO +U30 +Weather +,2013-03-14 01:15:00,
2013-03-13 18:20:00,53.2,49.9,29.75,SW,226,10.7,15.2,88,0.00,,,-99.99,73.0,HOBO +U30 +Weather +,2013-03-14 01:20:00,
2013-03-13 18:25:00,52.6,49.7,29.75,SW,226,10.1,16.3,90,0.00,,,-99.99,76.0,HOBO +U30 +Weather +,2013-03-14 01:25:00,
2013-03-13 18:30:00,52.6,49.9,29.74,SW,227,10.7,15.9,90,0.00,,,-99.99,109.0,HOBO +U30 +Weather +,2013-03-14 01:30:00,
2013-03-13 18:35:00,52.3,49.7,29.75,SW,225,10.1,14.5,90,0.00,,,-99.99,98.0,HOBO +U30 +Weather +,2013-03-14 01:35:00,
2013-03-13 18:40:00,52.6,50.0,29.75,SW,227,8.5,14.1,90,0.00,,,-99.99,76.0,HOBO +U30 +Weather +,2013-03-14 01:40:00,
2013-03-13 18:45:00,53.1,50.2,29.75,SW,223,8.5,13.4,89,0.00,,,-99.99,43.0,HOBO +U30 +Weather +,2013-03-14 01:45:00,
2013-03-13 18:50:00,53.1,50.0,29.75,SW,222,8.5,13.4,89,0.00,,,-99.99,36.0,HOBO +U30 +Weather +,2013-03-14 01:50:00,
2013-03-13 18:55:00,53.6,50.5,29.75,SW,226,7.4,12.3,89,0.00,,,-99.99,28.0,HOBO +U30 +Weather +,2013-03-14 01:55:00,
2013-03-13 19:20:00,53.4,50.2,29.74,SW,227,6.3,11.9,88,0.00,,,-99.99,1.0,HOBO +U30 +Weather +,2013-03-14 02:20:00,
2013-03-13 19:40:00,53.0,50.1,29.74,SW,232,7.4,11.2,89,0.00,,,-99.99,1.0,HOBO +U30 +Weather +,2013-03-14 02:40:00,
2013-03-13 19:45:00,53.3,50.2,29.74,SW,233,6.7,11.2,89,0.00,,,-99.99,1.0,HOBO +U30 +Weather +,2013-03-14 02:45:00,
2013-03-13 19:50:00,53.3,50.1,29.74,SW,233,7.4,11.2,88,0.00,,,-99.99,1.0,HOBO +U30 +Weather +,2013-03-14 02:50:00,
2013-03-13 19:55:00,53.4,50.2,29.74,SW,234,6.7,10.7,88,0.00,,,-99.99,1.0,HOBO +U30 +Weather +,2013-03-14 02:55:00,
2013-03-13 20:00:00,53.4,50.1,29.74,SW,233,6.7,10.1,88,0.00,,,-99.99,1.0,HOBO +U30 +Weather +,2013-03-14 03:00:00,
2013-03-13 20:05:00,53.6,50.2,29.75,SW,230,6.3,9.6,88,0.00,,,-99.99,1.0,HOBO +U30 +Weather +,2013-03-14 03:05:00,
2013-03-13 20:10:00,53.3,50.0,29.74,SW,233,6.7,9.6,88,0.00,,,-99.99,1.0,HOBO +U30 +Weather +,2013-03-14 03:10:00,
2013-03-13 20:15:00,52.8,49.6,29.74,SW,232,6.3,11.2,88,0.00,,,-99.99,1.0,HOBO +U30 +Weather +,2013-03-14 03:15:00,
2013-03-13 20:20:00,52.6,49.6,29.75,SW,234,7.4,10.7,89,0.00,,,-99.99,1.0,HOBO +U30 +Weather +,2013-03-14 03:20:00,
2013-03-13 20:30:00,52.2,49.6,29.75,SW,234,7.4,10.7,90,0.00,,,-99.99,1.0,HOBO +U30 +Weather +,2013-03-14 03:30:00,
2013-03-13 20:40:00,51.7,49.7,29.75,SW,233,6.7,10.7,92,0.00,,,-99.99,1.0,HOBO +U30 +Weather +,2013-03-14 03:40:00,
2013-03-13 20:45:00,52.0,49.9,29.75,SW,232,6.7,10.1,92,0.00,,,-99.99,1.0,HOBO +U30 +Weather +,2013-03-14 03:45:00,
2013-03-13 20:50:00,51.6,49.5,29.75,SW,232,7.4,11.9,92,0.00,,,-99.99,1.0,HOBO +U30 +Weather +,2013-03-14 03:50:00,
2013-03-13 20:55:00,51.2,49.4,29.75,SW,230,6.7,12.3,93,0.00,,,-99.99,1.0,HOBO +U30 +Weather +,2013-03-14 03:55:00,
2013-03-13 21:00:00,51.0,49.4,29.75,SW,229,6.7,10.7,94,0.00,,,-99.99,1.0,HOBO +U30 +Weather +,2013-03-14 04:00:00,
2013-03-13 21:05:00,51.1,49.6,29.75,SW,227,6.3,10.1,94,0.00,,,-99.99,1.0,HOBO +U30 +Weather +,2013-03-14 04:05:00,
2013-03-13 21:10:00,50.9,49.4,29.75,SW,227,7.4,11.2,94,0.00,,,-99.99,1.0,HOBO +U30 +Weather +,2013-03-14 04:10:00,
2013-03-13 21:15:00,50.0,48.7,29.76,SW,230,8.5,13.0,95,0.00,,,-99.99,1.0,HOBO +U30 +Weather +,2013-03-14 04:15:00,
2013-03-13 21:20:00,49.4,48.5,29.76,SW,232,8.9,13.4,96,0.00,,,-99.99,1.0,HOBO +U30 +Weather +,2013-03-14 04:20:00,
2013-03-13 21:25:00,49.0,48.4,29.76,SW,234,8.9,14.1,97,0.00,,,-99.99,1.0,HOBO +U30 +Weather +,2013-03-14 04:25:00,
2013-03-13 21:30:00,48.5,48.1,29.76,SW,232,9.6,14.1,98,0.00,,,-99.99,1.0,HOBO +U30 +Weather +,2013-03-14 04:30:00,
2013-03-13 21:35:00,48.4,48.2,29.76,SW,229,8.5,12.3,99,0.00,,,-99.99,1.0,HOBO +U30 +Weather +,2013-03-14 04:35:00,
2013-03-13 21:40:00,48.5,48.5,29.76,SW,229,7.8,12.3,99,0.00,,,-99.99,1.0,HOBO +U30 +Weather +,2013-03-14 04:40:00,
2013-03-13 21:45:00,48.6,48.7,29.76,SW,232,8.5,12.3,100,0.00,,,-99.99,1.0,HOBO +U30 +Weather +,2013-03-14 04:45:00,
2013-03-13 21:50:00,48.5,48.5,29.77,SW,232,8.5,13.0,100,0.00,,,-99.99,1.0,HOBO +U30 +Weather +,2013-03-14 04:50:00,
2013-03-13 21:55:00,48.6,48.6,29.77,SW,233,7.8,12.3,100,0.00,,,-99.99,1.0,HOBO +U30 +Weather +,2013-03-14 04:55:00,
2013-03-13 22:00:00,48.8,48.8,29.77,SW,232,7.4,11.9,100,0.00,,,-99.99,1.0,HOBO +U30 +Weather +,2013-03-14 05:00:00,
2013-03-13 22:05:00,48.8,48.9,29.77,SW,226,6.3,10.1,100,0.00,,,-99.99,1.0,HOBO +U30 +Weather +,2013-03-14 05:05:00,
2013-03-13 22:10:00,49.2,49.3,29.77,SW,226,5.6,8.5,100,0.00,,,-99.99,1.0,HOBO +U30 +Weather +,2013-03-14 05:10:00,
2013-03-13 22:15:00,49.4,49.4,29.77,SW,232,5.6,9.6,100,0.00,,,-99.99,1.0,HOBO +U30 +Weather +,2013-03-14 05:15:00,
2013-03-13 22:20:00,49.6,49.6,29.77,SW,234,5.1,9.6,99,0.00,,,-99.99,1.0,HOBO +U30 +Weather +,2013-03-14 05:20:00,
2013-03-13 22:25:00,49.2,49.1,29.78,SW,236,5.6,10.7,99,0.00,,,-99.99,1.0,HOBO +U30 +Weather +,2013-03-14 05:25:00,
2013-03-13 22:30:00,48.7,48.6,29.78,WSW,239,5.6,10.1,99,0.00,,,-99.99,1.0,HOBO +U30 +Weather +,2013-03-14 05:30:00,
2013-03-13 22:35:00,48.3,48.3,29.78,SW,236,6.3,10.1,99,0.00,,,-99.99,1.0,HOBO +U30 +Weather +,2013-03-14 05:35:00,
2013-03-13 22:40:00,48.6,48.7,29.78,SW,234,5.6,8.9,100,0.00,,,-99.99,1.0,HOBO +U30 +Weather +,2013-03-14 05:40:00,
2013-03-13 22:45:00,49.0,49.0,29.78,SW,234,5.1,8.5,100,0.00,,,-99.99,1.0,HOBO +U30 +Weather +,2013-03-14 05:45:00,
2013-03-13 22:50:00,48.9,49.0,29.78,SW,233,5.1,8.5,100,0.00,,,-99.99,1.0,HOBO +U30 +Weather +,2013-03-14 05:50:00,
2013-03-13 22:55:00,48.8,48.8,29.78,SW,230,5.1,8.5,100,0.00,,,-99.99,1.0,HOBO +U30 +Weather +,2013-03-14 05:55:00,
2013-03-13 23:00:00,48.6,48.6,29.78,SW,229,4.5,7.8,100,0.00,,,-99.99,1.0,HOBO +U30 +Weather +,2013-03-14 06:00:00,
2013-03-13 23:05:00,48.3,48.3,29.78,SW,230,6.3,10.7,100,0.00,,,-99.99,1.0,HOBO +U30 +Weather +,2013-03-14 06:05:00,
2013-03-13 23:10:00,48.5,48.5,29.78,SW,230,6.3,10.1,100,0.00,,,-99.99,1.0,HOBO +U30 +Weather +,2013-03-14 06:10:00,
2013-03-13 23:15:00,48.5,48.5,29.78,SW,230,6.3,9.6,100,0.00,,,-99.99,1.0,HOBO +U30 +Weather +,2013-03-14 06:15:00,
2013-03-13 23:20:00,48.5,48.5,29.78,SW,225,5.1,8.5,100,0.00,,,-99.99,1.0,HOBO +U30 +Weather +,2013-03-14 06:20:00,
2013-03-13 23:25:00,48.3,48.3,29.78,SW,226,5.1,8.5,100,0.00,,,-99.99,1.0,HOBO +U30 +Weather +,2013-03-14 06:25:00,
2013-03-13 23:30:00,48.3,48.3,29.78,SW,227,6.3,10.7,100,0.00,,,-99.99,1.0,HOBO +U30 +Weather +,2013-03-14 06:30:00,
2013-03-13 23:35:00,48.4,48.4,29.78,SW,225,5.1,9.6,100,0.00,,,-99.99,1.0,HOBO +U30 +Weather +,2013-03-14 06:35:00,
2013-03-13 23:40:00,48.3,48.3,29.78,SW,222,5.6,10.1,100,0.00,,,-99.99,1.0,HOBO +U30 +Weather +,2013-03-14 06:40:00,
2013-03-13 23:45:00,48.1,48.1,29.78,SW,227,6.7,10.1,100,0.00,,,-99.99,1.0,HOBO +U30 +Weather +,2013-03-14 06:45:00,
2013-03-13 23:50:00,48.0,48.0,29.78,SW,230,6.3,9.6,100,0.00,,,-99.99,1.0,HOBO +U30 +Weather +,2013-03-14 06:50:00,
2013-03-13 23:55:00,48.0,48.0,29.78,SW,234,6.3,11.2,100,0.00,,,-99.99,1.0,HOBO +U30 +Weather +,2013-03-14 06:55:00,